Flag for Germany Weather past 2 weeks in Braunschweig, Lower Saxony, Germany

Now
36 °F

Partly cloudy.


Feels Like: 27 °F
Forecast: 37 / 47 °F
Wind: 13 mph from Southwest

Location: Celle Airport

Current Time: Apr 2, 2015 at 5:17:51 AM

Latest Report: Apr 2, 2015 at 4:49 AM


Visibility: 4 mi

Pressure: 29.68 "Hg

Humidity: 93%

Dew point: 34 °F

Location of BraunschweigLocation

Historic Weather in Braunschweig — Graph

°F

Braunschweig temperature yesterday

Maximum temperature yesterday: 43 °F (at 1:20 PM)
Minimum temperature yesterday: 32 °F (at 4:20 AM)
Average temperature yesterday: 37 °F

Past Weeks' High & Low Weather Summary

 TemperatureHumidityPressure
High61 °F (Mar 25, 3:20 PM)100% (Mar 20, 11:20 PM)30.42 "Hg (Mar 20, 11:20 PM)
Low27 °F (Mar 20, 5:20 AM)31% (Mar 19, 3:20 PM)29.03 "Hg (Mar 29, 10:20 PM)
Average42 °F76%29.86 "Hg
* Reported Mar 18 2:20 AM — Apr 2 3:20 AM, Braunschweig, Weather by CustomWeather, © 2015

Note: Actual official high and low records may vary slightly from our data, if they occured in-between our weather recording intervals... More about our weather records

Advertising

Braunschweig weather history for previous 24 hours

 ConditionsComfort  
Time TempWeatherWind HumidityBarometerVisibility
3:20 AM
Thu, Apr 2
34 °FFog.12 mph93%29.74 "Hg3 mi
2:20 AM32 °FLight rain. Ice fog.2 mph100%29.77 "Hg3 mi
1:20 AM36 °FLight rain. Overcast.5 mph93%29.80 "Hg4 mi
12:20 AM34 °FLight snow. Passing clouds.5 mph93%29.86 "Hg5 mi
11:20 PM
Wed, Apr 1
34 °FLight snow. Passing clouds.7 mph93%29.89 "Hg5 mi
10:20 PM36 °FPassing clouds.13 mph87%29.92 "HgN/A
9:20 PM34 °FPassing clouds.7 mph93%29.92 "HgN/A
8:20 PM34 °FPartly sunny.8 mph93%29.92 "Hg5 mi
7:20 PM34 °FLight snow. Partly sunny.9 mph93%29.89 "Hg4 mi
6:20 PM37 °FPartly sunny.7 mph87%29.89 "HgN/A
5:20 PM39 °FPartly sunny.13 mph81%29.86 "HgN/A
4:20 PM41 °FBroken clouds.8 mph70%29.86 "HgN/A
3:51 PM39 °FBroken clouds.10 mph75%29.86 "HgN/A
3:20 PM39 °FThunderstorms. Broken clouds.13 mph75%29.86 "HgN/A
2:20 PM39 °FHail. Broken clouds.15 mph75%29.86 "HgN/A
1:20 PM43 °FBroken clouds.17 mph66%29.83 "HgN/A
12:20 PM41 °FPartly sunny.18 mph76%29.83 "HgN/A
11:20 AM39 °FScattered showers. Partly sunny.18 mph81%29.80 "Hg6 mi
10:20 AM39 °FPartly sunny.16 mph87%29.77 "HgN/A
9:20 AM37 °FBroken clouds.12 mph87%29.77 "HgN/A
8:20 AM36 °FBroken clouds.13 mph93%29.74 "HgN/A
7:20 AM36 °FPartly cloudy.14 mph93%29.71 "HgN/A
6:20 AM36 °FPassing clouds.14 mph87%29.68 "HgN/A
5:20 AM34 °FPassing clouds.10 mph93%29.65 "HgN/A
Weather by CustomWeather, © 2015

See weather overviewHow to use our weather pages